Time,TemperatureF,DewpointF,PressureIn,WindDirection,WindDirectionDegrees,WindSpeedMPH,WindSpeedGustMPH,Humidity,HourlyPrecipIn,Conditions,Clouds,dailyrainin,SoftwareType,DateUTC
2013-07-19 07:40:00,81.6,73.7,29.89,West,273,1.0,1.0,77,0.00,,,0.00,Wunderground v.1.15,2013-07-19 12:40:00,
2013-07-19 07:45:00,81.8,73.9,29.89,West,259,1.0,1.0,77,0.00,,,0.00,Wunderground v.1.15,2013-07-19 12:45:00,
2013-07-19 07:55:00,81.8,73.9,29.90,SE,141,2.0,2.0,77,0.00,,,0.00,Wunderground v.1.15,2013-07-19 12:55:00,
2013-07-19 08:00:00,82.2,74.3,29.90,SE,146,2.0,2.0,77,0.00,,,0.00,Wunderground v.1.15,2013-07-19 13:00:00,
2013-07-19 08:05:00,82.4,74.5,29.90,SSW,207,2.0,2.0,77,0.00,,,0.00,Wunderground v.1.15,2013-07-19 13:05:00,
2013-07-19 09:18:00,85.8,75.7,29.89,SSW,205,2.0,2.0,72,0.00,,,0.00,Wunderground v.1.15,2013-07-19 14:18:00,
2013-07-19 09:19:00,85.8,75.7,29.89,East,82,3.0,3.0,72,0.00,,,0.00,Wunderground v.1.15,2013-07-19 14:19:00,
2013-07-19 09:25:00,86.3,76.6,29.89,SSW,211,0.0,4.0,73,0.00,,,0.00,Wunderground v.1.15,2013-07-19 14:25:00,
2013-07-19 09:26:00,86.5,75.5,29.89,West,269,2.0,4.0,70,0.00,,,0.00,Wunderground v.1.15,2013-07-19 14:26:00,
2013-07-19 09:31:00,86.2,75.7,29.89,SW,230,0.0,9.0,71,0.00,,,0.00,Wunderground v.1.15,2013-07-19 14:31:00,
2013-07-19 09:36:00,86.8,75.8,29.89,SW,215,2.0,9.0,70,0.00,,,0.00,Wunderground v.1.15,2013-07-19 14:36:00,
2013-07-19 09:41:00,86.9,75.5,29.89,West,279,3.0,9.0,69,0.00,,,0.00,Wunderground v.1.15,2013-07-19 14:41:00,
2013-07-19 09:46:00,87.2,74.5,29.89,WSW,248,8.0,9.0,66,0.00,,,0.00,Wunderground v.1.15,2013-07-19 14:46:00,
2013-07-19 09:52:00,87.2,74.9,29.89,SSE,155,4.0,6.0,67,0.00,,,0.00,Wunderground v.1.15,2013-07-19 14:52:00,
2013-07-19 09:57:00,87.7,75.8,29.89,WSW,241,3.0,6.0,68,0.00,,,0.00,Wunderground v.1.15,2013-07-19 14:57:00,
2013-07-19 10:02:00,88.2,76.3,29.89,West,259,4.0,7.0,68,0.00,,,0.00,Wunderground v.1.15,2013-07-19 15:02:00,
2013-07-19 10:07:00,88.0,73.8,29.89,SSE,163,0.0,9.0,63,0.00,,,0.00,Wunderground v.1.15,2013-07-19 15:07:00,
2013-07-19 10:12:00,88.1,75.3,29.89,WSW,257,3.0,6.0,66,0.00,,,0.00,Wunderground v.1.15,2013-07-19 15:12:00,
2013-07-19 10:17:00,88.3,75.0,29.89,West,259,4.0,10.0,65,0.00,,,0.00,Wunderground v.1.15,2013-07-19 15:17:00,
2013-07-19 11:46:00,90.3,75.5,29.86,WSW,243,6.0,6.0,62,0.00,,,0.00,Wunderground v.1.15,2013-07-19 16:46:00,
2013-07-19 11:51:00,90.6,74.8,29.86,SW,220,3.0,9.0,60,0.00,,,0.00,Wunderground v.1.15,2013-07-19 16:51:00,
2013-07-19 11:56:00,90.8,74.5,29.86,SSW,212,4.0,5.0,59,0.00,,,0.00,Wunderground v.1.15,2013-07-19 16:56:00,
2013-07-19 12:01:00,91.0,74.7,29.86,SW,217,3.0,11.0,59,0.00,,,0.00,Wunderground v.1.15,2013-07-19 17:01:00,
2013-07-19 12:06:00,90.9,74.6,29.86,WSW,240,3.0,11.0,59,0.00,,,0.00,Wunderground v.1.15,2013-07-19 17:06:00,
2013-07-19 12:11:00,91.5,76.1,29.85,SW,221,2.0,8.0,61,0.00,,,0.00,Wunderground v.1.15,2013-07-19 17:11:00,
2013-07-19 12:17:00,91.9,75.5,29.85,SSE,162,1.0,8.0,59,0.00,,,0.00,Wunderground v.1.15,2013-07-19 17:17:00,
2013-07-19 14:31:00,93.0,71.6,29.81,SSW,205,6.0,6.0,50,0.00,,,0.00,Wunderground v.1.15,2013-07-19 19:31:00,
2013-07-19 14:36:00,93.1,71.1,29.81,WSW,252,4.0,14.0,49,0.00,,,0.00,Wunderground v.1.15,2013-07-19 19:36:00,
2013-07-19 14:41:00,93.2,73.0,29.81,WSW,253,5.0,7.0,52,0.00,,,0.00,Wunderground v.1.15,2013-07-19 19:41:00,
2013-07-19 14:46:00,93.2,73.0,29.81,WSW,241,7.0,16.0,52,0.00,,,0.00,Wunderground v.1.15,2013-07-19 19:46:00,
2013-07-19 14:51:00,92.9,71.5,29.81,WSW,257,12.0,15.0,50,0.00,,,0.00,Wunderground v.1.15,2013-07-19 19:51:00,
2013-07-19 14:56:00,93.1,72.9,29.81,SW,233,8.0,15.0,52,0.00,,,0.00,Wunderground v.1.15,2013-07-19 19:56:00,
2013-07-19 15:01:00,92.5,72.3,29.81,WSW,255,8.0,11.0,52,0.00,,,0.00,Wunderground v.1.15,2013-07-19 20:01:00,